Location: ?????????
(41.1143°N, 22.7905°E)
Time: 04:29:34
(UTC+00:00)

COSMO-SKYMED 1 - Pass Details

Date: 15 March 2026
Orbit: 576 x 578 km, 97.9° (Epoch: 15 April)

Event Time Altitude Azimuth Distance (km) Brightness Sun altitude
Rises 03:39:16 0° 151° (SSE) 2,780 6.2 -12.4°
Reaches altitude 10° 03:41:28 10° 144° (SE) 1,885 5.4 -12.0°
Maximum altitude 03:45:21 44° 72° (ENE) 803 3.7 -11.3°
Drops below altitude 10° 03:49:16 10° 1° (N) 1,899 5.2 -10.6°
Sets 03:51:30 0° 355° (N) 2,802 5.9 -10.1°
